{"data":{"norad_id":67693,"intl_designator":"2026-025A","name":"STARLINK-36748","alt_names":[],"object_type":"PAYLOAD","status":"ACTIVE","operator":null,"country":"US","launch_date":"2026-02-07","launch_site_code":"AFWTR","launch_vehicle":null,"mission":null,"orbit_class":"UNKNOWN","rcs_meters":null,"size_class":null,"mass_kg":null,"dimensions":null,"purposes":["comms"],"wikipedia_slug":null,"has_3d_model":false,"image_url":null,"decayed_at":null,"tle_current":{"epoch":"2026-09-19T14:42:38.453184Z","epoch_age_seconds":145512,"freshness":"FRESH","line1":"1 67693U 26025A   26262.61294506  .00017467  00000+0  54216-3 0  9992","line2":"2 67693  97.2871  12.5818 0001782  90.6197 269.5250 15.33441028 35730","mean_motion":15.33441028,"eccentricity":0.0001782,"inclination_deg":97.2871,"raan_deg":12.5818,"arg_perigee_deg":90.6197,"mean_anomaly_deg":269.525,"bstar":0.00054216,"rev_number":3573,"period_min":93.906447897649,"perigee_km":464.33544646806,"apogee_km":466.77453829414,"semimajor_km":6843.6919923811,"source":"CELESTRAK","updated_at":"2026-09-20T09:00:43.625725Z"}}}